星链-3917 (STARLINK-3917 )

导读

STARLINK-3917是美国SpaceX公司星链(Starlink)星座的成员卫星,于2022年5月13日发射入轨。作为星链低轨互联网星座的组成部分,它承担着为全球偏远地区提供高速低延迟宽带互联网服务的任务。该卫星采用平板设计、搭载霍尔推进器与自主避撞系统,服役末期会主动离轨坠入大气层焚毁,是星链全球通信组网部署的重要一环。

Basic Information
目录编号:
52588
目录名称:
STARLINK-3917
国际标识:
2022-051BE
轨道中心:
EARTH
卫星名称:
星链-3917
卫星全名:
星链-3917 (STARLINK-3917 )
卫星状态:
在轨 (已飞行1575 天)
发射日期:
2022-05-13 UTC
国别 :
美国 (US)
星等 :
--
Orbit Information
数据来源 国际轨道数据
星历时间: 2026-09-03T00:00:02+0800
1天前
查看轨道信息
半长轴: 6838.354km
偏心率: 0.000133
轨道倾角: 53.160°
近地点辐角 75.817°
升交点赤经 41.590°
平近点角 225.069°
近地点: 459.307km
远地点: 461.127km
周期: 93.797分钟
每日圈数: 15.352372
Detailed Information
固有亮度:
5
最大亮度:
2.5
卫星平台:
Starlink v1.5
覆盖范围:
全球
运营商:
太空探索技术公司
运营商所在国:
美国
制造商(研发单位):
太空探索技术公司
制造商所在国:
美国
使用方式:
暂无
Satellite Introduction
星链(Starlink)计划是由太空探索技术公司(SpaceX)提出的一个巨型低轨卫星互联网星座项目,计划在2019年至2024年间在太空搭建由约1.2万颗卫星组成的“星链”网络,其中1584颗将部署在地球上空550千米处的近地轨道,并从2020年开始工作。该卫星仍在工作。
2D Orbit Map
3D Orbit Map
Orbit Altitude Analysis Chart
Orbit Inclination Analysis Chart
Orbit Comprehensive Analysis Chart
View Comprehensive Chart
Conjunction Data List
Event ID Objects TCA Miss Dist (km) Collision Risk Probability Collision Risk Index (CRI) Action
CDM_260902-121505-258806-919521
2026-09-02T
12:15:46+0000
1.708 km
极远距离
3.867035E-6 低风险 0.47
CDM_260903-152905-258806-897221
2026-09-03T
15:29:45+0000
2.655 km
极远距离
1.293767E-6 低风险 0.37
CDM_260903-215205-258806-564521
2026-09-03T
21:52:58+0000
2.830 km
极远距离
1.284501E-6 低风险 0.37
CDM_260903-130905-258806-897221
2026-09-03T
13:09:06+0000
2.678 km
极远距离
1.27793E-6 低风险 0.37
CDM_260903-230405-258806-448221
2026-09-03T
23:04:31+0000
1.880 km
极远距离
1.275743E-6 低风险 0.37
CDM_260830-184905-258806-880321
2026-08-30T
18:49:24+0000
2.485 km
极远距离
1.138987E-6 低风险 0.36
CDM_260903-020705-258806-640521
2026-09-03T
02:07:13+0000
2.722 km
极远距离
9.924122E-7 极低风险 0.35
CDM_260903-041501-927405-258821
OKEAN 1 (19274)
2026-09-03T
04:15:08+0000
2.845 km
极远距离
8.830685E-7 极低风险 0.34
CDM_260904-104505-258806-583921
2026-09-04T
10:45:01+0000
2.801 km
极远距离
8.74179E-7 极低风险 0.34
CDM_260903-121105-258806-994521
2026-09-03T
12:11:52+0000
2.133 km
极远距离
7.113942E-7 极低风险 0.32